Time,TemperatureF,DewpointF,PressureIn,WindDirection,WindDirectionDegrees,WindSpeedMPH,WindSpeedGustMPH,Humidity,HourlyPrecipIn,Conditions,Clouds,dailyrainin,SoftwareType,DateUTC
2013-02-12 00:14:00,43.5,27.0,30.23,West,278,0.0,0.0,52,0.00,,,0.00,weatherlink.com 1.10,2013-02-12 08:14:00,
2013-02-12 00:29:00,42.9,28.0,30.23,West,278,0.0,0.0,55,0.00,,,0.00,weatherlink.com 1.10,2013-02-12 08:29:00,
2013-02-12 00:44:00,45.1,29.0,30.23,West,274,0.0,0.0,53,0.00,,,0.00,weatherlink.com 1.10,2013-02-12 08:44:00,
2013-02-12 00:59:00,43.7,28.0,30.23,West,274,0.0,0.0,54,0.00,,,0.00,weatherlink.com 1.10,2013-02-12 08:59:00,
2013-02-12 01:15:00,43.1,28.0,30.23,West,274,0.0,0.0,55,0.00,,,0.00,weatherlink.com 1.10,2013-02-12 09:15:00,
2013-02-12 01:29:00,43.4,28.0,30.24,West,274,0.0,0.0,56,0.00,,,0.00,weatherlink.com 1.10,2013-02-12 09:29:00,
2013-02-12 01:44:00,42.4,29.0,30.24,West,274,0.0,0.0,60,0.00,,,0.00,weatherlink.com 1.10,2013-02-12 09:44:00,
2013-02-12 01:59:00,41.7,29.0,30.25,West,274,0.0,0.0,61,0.00,,,0.00,weatherlink.com 1.10,2013-02-12 09:59:00,
2013-02-12 02:14:00,42.2,30.0,30.25,West,274,0.0,0.0,62,0.00,,,0.00,weatherlink.com 1.10,2013-02-12 10:14:00,
2013-02-12 02:29:00,42.9,29.0,30.25,West,274,0.0,0.0,59,0.00,,,0.00,weatherlink.com 1.10,2013-02-12 10:29:00,
2013-02-12 02:44:00,42.9,29.0,30.25,West,274,0.0,0.0,58,0.00,,,0.00,weatherlink.com 1.10,2013-02-12 10:44:00,
2013-02-12 02:59:00,42.1,28.0,30.25,West,274,0.0,0.0,58,0.00,,,0.00,weatherlink.com 1.10,2013-02-12 10:59:00,
2013-02-12 03:14:00,43.1,29.0,30.25,West,274,0.0,0.0,58,0.00,,,0.00,weatherlink.com 1.10,2013-02-12 11:14:00,
2013-02-12 03:29:00,43.8,28.0,30.24,West,274,0.0,0.0,54,0.00,,,0.00,weatherlink.com 1.10,2013-02-12 11:29:00,
2013-02-12 03:44:00,44.1,27.0,30.24,West,274,0.0,0.0,52,0.00,,,0.00,weatherlink.com 1.10,2013-02-12 11:44:00,
2013-02-12 03:59:00,44.2,27.0,30.24,West,274,0.0,0.0,52,0.00,,,0.00,weatherlink.com 1.10,2013-02-12 11:59:00,
2013-02-12 04:14:00,43.3,28.0,30.25,West,274,0.0,0.0,55,0.00,,,0.00,weatherlink.com 1.10,2013-02-12 12:14:00,
2013-02-12 04:29:00,43.0,28.0,30.25,West,274,0.0,0.0,56,0.00,,,0.00,weatherlink.com 1.10,2013-02-12 12:29:00,
2013-02-12 04:44:00,43.4,28.0,30.26,West,274,0.0,0.0,55,0.00,,,0.00,weatherlink.com 1.10,2013-02-12 12:44:00,
2013-02-12 05:00:00,43.4,28.0,30.26,West,274,0.0,0.0,55,0.00,,,0.00,weatherlink.com 1.10,2013-02-12 13:00:00,
2013-02-12 05:15:00,43.2,29.0,30.27,West,274,0.0,0.0,57,0.00,,,0.00,weatherlink.com 1.10,2013-02-12 13:15:00,
2013-02-12 05:29:00,42.9,28.0,30.27,West,274,0.0,0.0,56,0.00,,,0.00,weatherlink.com 1.10,2013-02-12 13:29:00,
2013-02-12 05:44:00,42.9,28.0,30.28,West,264,0.0,0.0,57,0.00,,,0.00,weatherlink.com 1.10,2013-02-12 13:44:00,
2013-02-12 05:59:00,43.8,29.0,30.28,West,264,0.0,0.0,56,0.00,,,0.00,weatherlink.com 1.10,2013-02-12 13:59:00,
2013-02-12 06:14:00,43.8,29.0,30.29,West,273,0.0,0.0,56,0.00,,,0.00,weatherlink.com 1.10,2013-02-12 14:14:00,
2013-02-12 06:29:00,43.7,28.0,30.29,West,272,0.0,0.0,55,0.00,,,0.00,weatherlink.com 1.10,2013-02-12 14:29:00,
2013-02-12 06:45:00,42.8,28.0,30.29,West,273,0.0,0.0,57,0.00,,,0.00,weatherlink.com 1.10,2013-02-12 14:45:00,
2013-02-12 07:00:00,41.6,29.0,30.30,West,274,0.0,0.0,61,0.00,,,0.00,weatherlink.com 1.10,2013-02-12 15:00:00,
2013-02-12 07:14:00,41.6,29.0,30.31,SW,219,0.0,0.0,61,0.00,,,0.00,weatherlink.com 1.10,2013-02-12 15:14:00,
2013-02-12 07:29:00,42.8,30.0,30.32,WNW,284,0.0,1.0,60,0.00,,,0.00,weatherlink.com 1.10,2013-02-12 15:29:00,
2013-02-12 07:45:00,43.1,30.0,30.32,SW,232,0.0,1.0,60,0.00,,,0.00,weatherlink.com 1.10,2013-02-12 15:45:00,
2013-02-12 08:00:00,45.6,31.0,30.32,East,91,0.0,2.0,56,0.00,,,0.00,weatherlink.com 1.10,2013-02-12 16:00:00,
2013-02-12 08:15:00,47.8,31.0,30.33,East,81,0.0,2.0,53,0.00,,,0.00,weatherlink.com 1.10,2013-02-12 16:15:00,
2013-02-12 08:30:00,50.5,31.0,30.33,NE,37,0.0,3.0,47,0.00,,,0.00,weatherlink.com 1.10,2013-02-12 16:30:00,
2013-02-12 08:45:00,51.4,31.0,30.34,NW,314,2.0,5.0,46,0.00,,,0.00,weatherlink.com 1.10,2013-02-12 16:45:00,
2013-02-12 09:00:00,51.4,31.0,30.34,ESE,103,0.0,3.0,46,0.00,,,0.00,weatherlink.com 1.10,2013-02-12 17:00:00,
2013-02-12 09:15:00,52.1,31.0,30.34,ENE,60,1.0,4.0,44,0.00,,,0.00,weatherlink.com 1.10,2013-02-12 17:15:00,
2013-02-12 09:30:00,52.6,32.0,30.35,NE,37,1.0,4.0,45,0.00,,,0.00,weatherlink.com 1.10,2013-02-12 17:30:00,
2013-02-12 09:45:00,53.6,31.0,30.35,North,8,2.0,5.0,43,0.00,,,0.00,weatherlink.com 1.10,2013-02-12 17:45:00,
2013-02-12 10:00:00,54.9,32.0,30.35,NNW,342,0.0,4.0,42,0.00,,,0.00,weatherlink.com 1.10,2013-02-12 18:00:00,
2013-02-12 10:15:00,55.6,32.0,30.35,East,89,2.0,4.0,41,0.00,,,0.00,weatherlink.com 1.10,2013-02-12 18:15:00,
2013-02-12 10:30:00,55.9,32.0,30.35,ENE,77,5.0,6.0,41,0.00,,,0.00,weatherlink.com 1.10,2013-02-12 18:30:00,
2013-02-12 10:45:00,56.1,32.0,30.35,ENE,71,2.0,6.0,41,0.00,,,0.00,weatherlink.com 1.10,2013-02-12 18:45:00,
2013-02-12 11:00:00,56.7,33.0,30.35,East,82,1.0,4.0,41,0.00,,,0.00,weatherlink.com 1.10,2013-02-12 19:00:00,
2013-02-12 11:15:00,57.4,32.0,30.35,ENE,77,0.0,5.0,38,0.00,,,0.00,weatherlink.com 1.10,2013-02-12 19:15:00,
2013-02-12 11:30:00,58.0,32.0,30.35,NW,312,2.0,4.0,38,0.00,,,0.00,weatherlink.com 1.10,2013-02-12 19:30:00,
2013-02-12 11:45:00,58.2,32.0,30.34,North,9,5.0,6.0,38,0.00,,,0.00,weatherlink.com 1.10,2013-02-12 19:45:00,
2013-02-12 12:00:00,58.4,32.0,30.34,ESE,103,4.0,5.0,37,0.00,,,0.00,weatherlink.com 1.10,2013-02-12 20:00:00,
2013-02-12 12:16:00,58.8,32.0,30.34,SW,217,1.0,5.0,37,0.00,,,0.00,weatherlink.com 1.10,2013-02-12 20:16:00,
2013-02-12 12:30:00,59.6,32.0,30.33,ENE,78,1.0,3.0,36,0.00,,,0.00,weatherlink.com 1.10,2013-02-12 20:30:00,
2013-02-12 12:45:00,60.5,34.0,30.33,ENE,57,1.0,3.0,37,0.00,,,0.00,weatherlink.com 1.10,2013-02-12 20:45:00,
2013-02-12 13:00:00,60.5,34.0,30.32,ESE,110,2.0,4.0,37,0.00,,,0.00,weatherlink.com 1.10,2013-02-12 21:00:00,
2013-02-12 13:15:00,60.7,35.0,30.32,SE,126,0.0,5.0,38,0.00,,,0.00,weatherlink.com 1.10,2013-02-12 21:15:00,
2013-02-12 13:30:00,61.3,35.0,30.32,East,84,1.0,2.0,38,0.00,,,0.00,weatherlink.com 1.10,2013-02-12 21:30:00,
2013-02-12 13:46:00,61.3,35.0,30.31,East,82,1.0,3.0,37,0.00,,,0.00,weatherlink.com 1.10,2013-02-12 21:46:00,
2013-02-12 14:00:00,61.4,34.0,30.31,North,352,1.0,3.0,36,0.00,,,0.00,weatherlink.com 1.10,2013-02-12 22:00:00,
2013-02-12 14:16:00,60.8,34.0,30.30,ENE,68,1.0,5.0,37,0.00,,,0.00,weatherlink.com 1.10,2013-02-12 22:16:00,
2013-02-12 14:31:00,60.3,34.0,30.30,ESE,107,1.0,3.0,38,0.00,,,0.00,weatherlink.com 1.10,2013-02-12 22:31:00,
2013-02-12 14:46:00,60.0,34.0,30.30,SE,125,1.0,2.0,38,0.00,,,0.00,weatherlink.com 1.10,2013-02-12 22:46:00,
2013-02-12 15:01:00,59.7,33.0,30.30,SW,215,0.0,2.0,36,0.00,,,0.00,weatherlink.com 1.10,2013-02-12 23:01:00,
2013-02-12 15:16:00,59.5,33.0,30.30,NNE,19,2.0,3.0,37,0.00,,,0.00,weatherlink.com 1.10,2013-02-12 23:16:00,
2013-02-12 15:31:00,59.3,33.0,30.30,East,88,1.0,2.0,38,0.00,,,0.00,weatherlink.com 1.10,2013-02-12 23:31:00,
2013-02-12 15:46:00,58.8,35.0,30.30,SSE,161,0.0,3.0,41,0.00,,,0.00,weatherlink.com 1.10,2013-02-12 23:46:00,
2013-02-12 16:01:00,58.2,34.0,30.30,ESE,110,1.0,3.0,41,0.00,,,0.00,weatherlink.com 1.10,2013-02-13 00:01:00,
2013-02-12 16:16:00,57.4,34.0,30.30,ESE,112,0.0,2.0,42,0.00,,,0.00,weatherlink.com 1.10,2013-02-13 00:16:00,
2013-02-12 16:31:00,56.3,36.0,30.30,NW,319,0.0,1.0,46,0.00,,,0.00,weatherlink.com 1.10,2013-02-13 00:31:00,
2013-02-12 16:46:00,55.3,35.0,30.30,ESE,108,0.0,2.0,47,0.00,,,0.00,weatherlink.com 1.10,2013-02-13 00:46:00,
2013-02-12 17:01:00,53.8,35.0,30.30,ESE,108,0.0,0.0,49,0.00,,,0.00,weatherlink.com 1.10,2013-02-13 01:01:00,
2013-02-12 17:16:00,52.4,35.0,30.30,SSE,152,0.0,0.0,51,0.00,,,0.00,weatherlink.com 1.10,2013-02-13 01:16:00,
2013-02-12 17:31:00,51.7,35.0,30.30,SSE,153,0.0,0.0,53,0.00,,,0.00,weatherlink.com 1.10,2013-02-13 01:31:00,
2013-02-12 17:46:00,50.5,35.0,30.30,SSE,153,0.0,0.0,55,0.00,,,0.00,weatherlink.com 1.10,2013-02-13 01:46:00,
2013-02-12 18:01:00,48.8,34.0,30.30,SSE,158,0.0,0.0,58,0.00,,,0.00,weatherlink.com 1.10,2013-02-13 02:01:00,
2013-02-12 18:16:00,48.3,33.0,30.30,SSE,158,0.0,0.0,57,0.00,,,0.00,weatherlink.com 1.10,2013-02-13 02:16:00,
2013-02-12 18:31:00,48.3,33.0,30.30,SSE,163,0.0,0.0,55,0.00,,,0.00,weatherlink.com 1.10,2013-02-13 02:31:00,
2013-02-12 18:46:00,47.5,33.0,30.30,WSW,243,0.0,0.0,57,0.00,,,0.00,weatherlink.com 1.10,2013-02-13 02:46:00,
2013-02-12 19:01:00,46.5,33.0,30.30,SW,228,0.0,1.0,59,0.00,,,0.00,weatherlink.com 1.10,2013-02-13 03:01:00,
2013-02-12 19:16:00,45.7,34.0,30.30,SSW,207,0.0,1.0,63,0.00,,,0.00,weatherlink.com 1.10,2013-02-13 03:16:00,
2013-02-12 19:31:00,46.3,34.0,30.30,SW,231,0.0,1.0,62,0.00,,,0.00,weatherlink.com 1.10,2013-02-13 03:31:00,
2013-02-12 19:46:00,46.7,34.0,30.31,WSW,246,0.0,0.0,62,0.00,,,0.00,weatherlink.com 1.10,2013-02-13 03:46:00,
2013-02-12 20:01:00,47.9,34.0,30.31,West,278,1.0,1.0,60,0.00,,,0.00,weatherlink.com 1.10,2013-02-13 04:01:00,
2013-02-12 20:16:00,46.5,34.0,30.31,West,262,1.0,1.0,62,0.00,,,0.00,weatherlink.com 1.10,2013-02-13 04:16:00,
2013-02-12 20:31:00,46.0,34.0,30.31,West,262,0.0,1.0,63,0.00,,,0.00,weatherlink.com 1.10,2013-02-13 04:31:00,
2013-02-12 20:46:00,45.3,34.0,30.31,West,262,0.0,0.0,66,0.00,,,0.00,weatherlink.com 1.10,2013-02-13 04:46:00,
2013-02-12 21:01:00,45.0,35.0,30.31,West,262,0.0,0.0,67,0.00,,,0.00,weatherlink.com 1.10,2013-02-13 05:01:00,
2013-02-12 21:16:00,44.4,34.0,30.31,West,262,0.0,0.0,68,0.00,,,0.00,weatherlink.com 1.10,2013-02-13 05:16:00,
2013-02-12 21:31:00,44.3,35.0,30.31,West,262,0.0,0.0,69,0.00,,,0.00,weatherlink.com 1.10,2013-02-13 05:31:00,
2013-02-12 21:46:00,44.5,34.0,30.31,West,262,0.0,0.0,67,0.00,,,0.00,weatherlink.com 1.10,2013-02-13 05:46:00,
2013-02-12 22:01:00,43.9,34.0,30.31,West,262,0.0,0.0,69,0.00,,,0.00,weatherlink.com 1.10,2013-02-13 06:01:00,
2013-02-12 22:16:00,44.2,34.0,30.31,West,262,0.0,0.0,68,0.00,,,0.00,weatherlink.com 1.10,2013-02-13 06:16:00,
2013-02-12 22:31:00,43.4,34.0,30.32,West,262,0.0,1.0,69,0.00,,,0.00,weatherlink.com 1.10,2013-02-13 06:31:00,
2013-02-12 22:46:00,43.9,34.0,30.32,WSW,256,0.0,0.0,68,0.00,,,0.00,weatherlink.com 1.10,2013-02-13 06:46:00,
2013-02-12 23:01:00,43.3,34.0,30.32,WSW,250,0.0,0.0,71,0.00,,,0.00,weatherlink.com 1.10,2013-02-13 07:01:00,
2013-02-12 23:16:00,42.8,35.0,30.32,WSW,257,0.0,0.0,73,0.00,,,0.00,weatherlink.com 1.10,2013-02-13 07:16:00,
2013-02-12 23:31:00,42.6,35.0,30.32,WSW,246,0.0,0.0,74,0.00,,,0.00,weatherlink.com 1.10,2013-02-13 07:31:00,
2013-02-12 23:46:00,42.4,35.0,30.32,WSW,246,0.0,0.0,75,0.00,,,0.00,weatherlink.com 1.10,2013-02-13 07:46:00,